Location: *
(43.0409°N, 0.1694°E)
Time: 20:36:26
(UTC+00:00)

FENGYUN 1C DEB - Pass Details

Date: 27 June 2024
Orbit: 854 x 917 km, 98.8° (Epoch: 17 July)

Event Time Altitude Azimuth Distance (km) Brightness Sun altitude
Rises 20:47:43 0° 217° (SW) 3,517 ? -10.0°
Reaches altitude 10° 20:51:30 10° 243° (WSW) 2,593 ? -10.5°
Maximum altitude 20:54:18 14° 272° (W) 2,343 ? -10.8°
Drops below altitude 10° 20:57:08 10° 302° (WNW) 2,612 ? -11.2°
Sets 21:01:00 0° 327° (NNW) 3,564 ? -11.6°
